| time (UTC) | temp C | wind direction | speed KPH | gust KPH | rain 1hr cm | rain 24hr cm | rain mn cm | humidity % | barometer mb |
| 20260508161532 | 16 | 130 | 3.2 | 11.3 | 0.00 | 0.00 | 0.00 | 76 | 1018.6 |
| 20260508160026 | 15 | 126 | 4.8 | 12.9 | 0.00 | 0.00 | 0.00 | 79 | 1018.6 |
| 20260508154524 | 14 | 111 | 4.8 | 12.9 | 0.00 | 0.00 | 0.00 | 80 | 1018.7 |
| 20260508153022 | 14 | 137 | 6.4 | 17.7 | 0.00 | 0.00 | 0.00 | 81 | 1018.6 |
| 20260508151520 | 13 | 134 | 4.8 | 11.3 | 0.00 | 0.00 | 0.00 | 81 | 1018.5 |
| 20260508150022 | 13 | 141 | 3.2 | 14.5 | 0.00 | 0.00 | 0.00 | 83 | 1018.4 |
| 20260508144517 | 13 | 145 | 3.2 | 9.7 | 0.00 | 0.00 | 0.00 | 84 | 1018.5 |
| 20260508143015 | 12 | 149 | 1.6 | 8.0 | 0.00 | 0.00 | 0.00 | 85 | 1018.3 |
| 20260508141511 | 12 | 143 | 1.6 | 12.9 | 0.00 | 0.00 | 0.00 | 87 | 1017.8 |
| 20260508140009 | 12 | 157 | 1.6 | 9.7 | 0.00 | 0.00 | 0.00 | 87 | 1017.8 |
| 20260508134511 | 11 | 136 | 4.8 | 12.9 | 0.00 | 0.00 | 0.00 | 88 | 1017.6 |
| 20260508133006 | 11 | 123 | 1.6 | 11.3 | 0.00 | 0.00 | 0.00 | 87 | 1017.5 |
| 20260508131503 | 11 | 123 | 1.6 | 8.0 | 0.00 | 0.00 | 0.00 | 87 | 1017.4 |
| 20260508130002 | 12 | 106 | 1.6 | 8.0 | 0.00 | 0.00 | 0.00 | 87 | 1017.3 |
| 20260508124559 | 12 | 174 | 4.8 | 12.9 | 0.00 | 0.00 | 0.00 | 86 | 1017.4 |
| 20260508123057 | 12 | 148 | 1.6 | 11.3 | 0.00 | 0.00 | 0.00 | 87 | 1017.3 |
| 20260508121557 | 12 | 146 | 3.2 | 11.3 | 0.00 | 0.00 | 0.00 | 87 | 1017.2 |
| 20260508120055 | 12 | 136 | 3.2 | 11.3 | 0.00 | 0.00 | 0.00 | 87 | 1017.2 |
| 20260508114652 | 12 | 171 | 3.2 | 14.5 | 0.00 | 0.00 | 0.00 | 87 | 1017.1 |
| 20260508113053 | 12 | 142 | 3.2 | 12.9 | 0.00 | 0.00 | 0.00 | 87 | 1016.9 |
| 20260508111559 | 12 | 142 | 4.8 | 16.1 | 0.00 | 0.00 | 0.00 | 86 | 1017.0 |
| 20260508110045 | 12 | 120 | 3.2 | 12.9 | 0.00 | 0.00 | 0.00 | 86 | 1017.0 |
| 20260508104543 | 12 | 146 | 3.2 | 14.5 | 0.00 | 0.00 | 0.00 | 86 | 1016.9 |
| 20260508103042 | 13 | 130 | 3.2 | 11.3 | 0.00 | 0.00 | 0.00 | 86 | 1016.9 |
| 20260508101540 | 13 | 142 | 4.8 | 11.3 | 0.00 | 0.00 | 0.00 | 86 | 1016.8 |
| 20260508100039 | 13 | 131 | 1.6 | 12.9 | 0.00 | 0.00 | 0.00 | 85 | 1016.9 |
| 20260508094537 | 13 | 133 | 6.4 | 12.9 | 0.00 | 0.00 | 0.00 | 84 | 1016.8 |
| 20260508093036 | 13 | 157 | 4.8 | 14.5 | 0.00 | 0.00 | 0.00 | 84 | 1016.7 |
| 20260508091538 | 13 | 147 | 3.2 | 12.9 | 0.00 | 0.00 | 0.00 | 84 | 1016.8 |
| 20260508090031 | 13 | 170 | 1.6 | 8.0 | 0.00 | 0.00 | 0.00 | 83 | 1016.6 |
| 20260508084531 | 13 | 131 | 1.6 | 11.3 | 0.00 | 0.00 | 0.00 | 83 | 1016.6 |
| 20260508083028 | 13 | 184 | 3.2 | 12.9 | 0.00 | 0.00 | 0.00 | 82 | 1016.7 |
| 20260508081529 | 14 | 128 | 4.8 | 11.3 | 0.00 | 0.00 | 0.00 | 82 | 1016.8 |
| 20260508080024 | 14 | 153 | 3.2 | 9.7 | 0.00 | 0.00 | 0.00 | 82 | 1016.8 |
| 20260508074525 | 15 | 157 | 3.2 | 8.0 | 0.00 | 0.00 | 0.00 | 81 | 1016.5 |
| 20260508073023 | 15 | 159 | 4.8 | 11.3 | 0.00 | 0.00 | 0.00 | 80 | 1016.5 |
| 20260508071516 | 15 | 135 | 4.8 | 12.9 | 0.00 | 0.00 | 0.00 | 79 | 1016.5 |
| 20260508070013 | 16 | 119 | 4.8 | 14.5 | 0.00 | 0.00 | 0.00 | 78 | 1016.3 |
| 20260508064519 | 16 | 132 | 3.2 | 12.9 | 0.00 | 0.00 | 0.00 | 77 | 1016.3 |
| 20260508063012 | 16 | 114 | 1.6 | 8.0 | 0.00 | 0.00 | 0.00 | 77 | 1016.3 |
| 20260508061512 | 16 | 157 | 1.6 | 6.4 | 0.00 | 0.00 | 0.00 | 76 | 1016.1 |
| 20260508060011 | 17 | 113 | 3.2 | 11.3 | 0.00 | 0.00 | 0.00 | 76 | 1016.0 |
| 20260508054512 | 17 | 150 | 1.6 | 8.0 | 0.00 | 0.00 | 0.00 | 75 | 1016.1 |
| 20260508053011 | 17 | 170 | 1.6 | 9.7 | 0.00 | 0.00 | 0.00 | 74 | 1016.1 |
| 20260508051518 | 18 | 144 | 4.8 | 8.0 | 0.00 | 0.00 | 0.00 | 73 | 1016.1 |
| 20260508050011 | 18 | 163 | 4.8 | 11.3 | 0.00 | 0.00 | 0.00 | 72 | 1016.0 |
| 20260508044508 | 18 | 216 | 3.2 | 8.0 | 0.00 | 0.00 | 0.00 | 71 | 1015.9 |
| 20260508043014 | 19 | 200 | 1.6 | 11.3 | 0.00 | 0.00 | 0.00 | 70 | 1015.8 |
| 20260508041509 | 20 | 172 | 4.8 | 12.9 | 0.00 | 0.00 | 0.00 | 69 | 1015.6 |
| 20260508040006 | 21 | 16 | 4.8 | 16.1 | 0.00 | 0.00 | 0.00 | 67 | 1015.5 |
| 20260508034507 | 21 | 21 | 1.6 | 12.9 | 0.00 | 0.00 | 0.00 | 65 | 1015.3 |
| 20260508033005 | 22 | 163 | 1.6 | 11.3 | 0.00 | 0.00 | 0.00 | 64 | 1015.1 |
| 20260508031504 | 23 | 180 | 1.6 | 11.3 | 0.00 | 0.00 | 0.00 | 63 | 1015.1 |
| 20260508030003 | 24 | 132 | 4.8 | 9.7 | 0.00 | 0.00 | 0.00 | 61 | 1014.9 |
| 20260508024502 | 25 | 173 | 4.8 | 14.5 | 0.00 | 0.00 | 0.00 | 58 | 1014.8 |
| 20260508023001 | 26 | 213 | 1.6 | 12.9 | 0.00 | 0.00 | 0.00 | 57 | 1014.7 |
| 20260508021619 | 27 | 46 | 6.4 | 11.3 | 0.00 | 0.00 | 0.00 | 54 | 1014.7 |
| 20260508020101 | 29 | 215 | 4.8 | 14.5 | 0.00 | 0.00 | 0.00 | 50 | 1014.6 |
| 20260508014600 | 30 | 240 | 0.0 | 4.8 | 0.00 | 0.00 | 0.00 | 44 | 1014.6 |
| 20260508013058 | 30 | 173 | 0.0 | 4.8 | 0.00 | 0.00 | 0.00 | 44 | 1014.7 |
| 20260508011608 | 31 | 217 | 1.6 | 6.4 | 0.00 | 0.00 | 0.00 | 44 | 1014.8 |
| 20260508010054 | 31 | 241 | 0.0 | 8.0 | 0.00 | 0.00 | 0.00 | 45 | 1014.9 |
| 20260508004558 | 31 | 232 | 1.6 | 6.4 | 0.00 | 0.00 | 0.00 | 43 | 1015.0 |
| 20260508003051 | 31 | 258 | 3.2 | 6.4 | 0.00 | 0.00 | 0.00 | 44 | 1015.1 |
| 20260508001553 | 31 | 192 | 1.6 | 8.0 | 0.00 | 0.00 | 0.00 | 44 | 1015.2 |
| 20260508000048 | 31 | 57 | 0.0 | 9.7 | 0.00 | 0.00 | 0.00 | 44 | 1015.2 |
| 20260507234553 | 31 | 130 | 1.6 | 8.0 | 0.00 | 0.00 | 0.00 | 43 | 1015.3 |
| 20260507233047 | 31 | 210 | 3.2 | 11.3 | 0.00 | 0.00 | 0.00 | 43 | 1015.4 |
| 20260507231549 | 30 | 181 | 0.0 | 8.0 | 0.00 | 0.00 | 0.00 | 43 | 1015.5 |
| 20260507230041 | 30 | 339 | 1.6 | 4.8 | 0.00 | 0.00 | 0.00 | 44 | 1015.7 |
| 20260507224539 | 30 | 279 | 1.6 | 6.4 | 0.00 | 0.00 | 0.00 | 44 | 1016.0 |
| 20260507223037 | 30 | 249 | 1.6 | 6.4 | 0.00 | 0.00 | 0.00 | 46 | 1016.2 |
| 20260507221533 | 29 | 74 | 1.6 | 4.8 | 0.00 | 0.00 | 0.00 | 47 | 1016.5 |
| 20260507220031 | 29 | 329 | 1.6 | 9.7 | 0.00 | 0.00 | 0.00 | 49 | 1016.8 |
| 20260507214527 | 29 | 187 | 1.6 | 6.4 | 0.00 | 0.00 | 0.00 | 48 | 1017.0 |
| 20260507213024 | 28 | 149 | 1.6 | 6.4 | 0.00 | 0.00 | 0.00 | 50 | 1017.2 |
| 20260507211519 | 28 | 245 | 3.2 | 8.0 | 0.00 | 0.00 | 0.00 | 50 | 1017.4 |
| 20260507210017 | 27 | 150 | 1.6 | 8.0 | 0.00 | 0.00 | 0.00 | 50 | 1017.6 |
| 20260507204513 | 27 | 239 | 1.6 | 8.0 | 0.00 | 0.00 | 0.00 | 51 | 1017.7 |
| 20260507203013 | 27 | 220 | 1.6 | 9.7 | 0.00 | 0.00 | 0.00 | 53 | 1017.9 |
| 20260507201509 | 26 | 248 | 3.2 | 8.0 | 0.00 | 0.00 | 0.00 | 54 | 1018.2 |
| 20260507200004 | 26 | 242 | 3.2 | 8.0 | 0.00 | 0.00 | 0.00 | 53 | 1018.2 |
| 20260507194604 | 25 | 302 | 1.6 | 8.0 | 0.00 | 0.00 | 0.00 | 57 | 1018.4 |
| 20260507193058 | 25 | 200 | 1.6 | 6.4 | 0.00 | 0.00 | 0.00 | 57 | 1018.6 |
| 20260507191555 | 25 | 167 | 0.0 | 9.7 | 0.00 | 0.00 | 0.00 | 59 | 1018.8 |
| 20260507190052 | 24 | 230 | 0.0 | 9.7 | 0.00 | 0.00 | 0.00 | 61 | 1019.1 |
| 20260507184548 | 23 | 165 | 0.0 | 8.0 | 0.00 | 0.00 | 0.00 | 62 | 1019.2 |
| 20260507183046 | 22 | 251 | 1.6 | 6.4 | 0.00 | 0.00 | 0.00 | 65 | 1019.3 |
| 20260507181538 | 21 | 231 | 0.0 | 6.4 | 0.00 | 0.00 | 0.00 | 66 | 1019.5 |
| 20260507180037 | 21 | 300 | 0.0 | 6.4 | 0.00 | 0.00 | 0.00 | 66 | 1019.4 |
| 20260507174533 | 20 | 205 | 3.2 | 8.0 | 0.00 | 0.00 | 0.00 | 68 | 1019.5 |
| 20260507173039 | 20 | 259 | 3.2 | 11.3 | 0.00 | 0.00 | 0.00 | 69 | 1019.5 |
| 20260507171524 | 19 | 162 | 1.6 | 8.0 | 0.00 | 0.00 | 0.00 | 71 | 1019.6 |
| 20260507170020 | 18 | 186 | 0.0 | 6.4 | 0.00 | 0.00 | 0.00 | 72 | 1019.8 |
| 20260507164517 | 18 | 229 | 0.0 | 6.4 | 0.00 | 0.00 | 0.00 | 73 | 1019.8 |
| 20260507163013 | 17 | 146 | 1.6 | 6.4 | 0.00 | 0.00 | 0.00 | 74 | 1019.7 |